Location: Carthage
(33.8834°N, 106.6595°W)
Time: 17:39:38
(UTC+00:00)

Cosmos 2322 Rocket - Visible Passes

Search period start: 17 May 2026 00:00
Search period end: 27 May 2026 00:00
Orbit: 832 x 849 km, 71.0° (Epoch: 17 May)

Date Brightness Start Highest point End Pass type
(mag) Time Alt. Az. Time Alt. Az. Time Alt. Az.
17 May 4.3 03:13:38 10° NNE 03:15:32 12° NE 03:17:26 10° ENE visible
17 May 2.2 04:54:35 10° NNW 04:59:53 78° NNW 04:59:53 78° NNW visible
18 May 4.3 02:58:41 10° NE 03:00:04 11° NE 03:01:26 10° ENE visible
18 May 2.0 04:39:10 10° NNW 04:44:52 86° ENE 04:45:01 84° ESE visible
19 May 4.4 02:44:17 10° NE 02:44:35 10° NE 02:44:54 10° NE visible
19 May 2.0 04:23:45 10° NNW 04:29:27 81° ENE 04:30:11 68° SE visible
20 May 2.1 04:08:21 10° NNW 04:14:02 76° ENE 04:15:23 53° SE visible
20 May 4.6 05:55:45 10° W 05:57:11 11° W 05:57:11 11° W visible
21 May 2.2 03:52:56 10° NNW 03:58:37 71° ENE 04:00:38 41° SE visible
21 May 4.6 05:39:48 10° WNW 05:41:54 12° W 05:42:26 12° WSW visible
22 May 2.2 03:37:32 10° NNW 03:43:12 67° ENE 03:45:55 31° SE visible
22 May 4.5 05:24:00 10° WNW 05:26:31 13° W 05:27:44 12° WSW visible
23 May 2.3 03:22:09 10° NNW 03:27:46 62° ENE 03:31:16 23° SE visible
23 May 4.5 05:08:17 10° WNW 05:11:09 14° W 05:13:05 12° WSW visible
24 May 2.4 03:06:45 10° NNW 03:12:21 58° ENE 03:16:39 17° SE visible
24 May 4.5 04:52:36 10° WNW 04:55:46 15° W 04:58:28 11° SW visible
25 May 2.5 02:51:21 10° N 02:56:55 54° ENE 03:02:06 12° SE visible
25 May 4.5 04:36:57 10° WNW 04:40:23 17° W 04:43:49 10° SW visible
26 May 2.5 02:35:58 10° N 02:41:30 51° ENE 02:47:00 10° SE visible
26 May 4.4 04:21:20 10° WNW 04:25:00 18° W 04:28:40 10° SW visible
